Weather History for KNQX - October, 2013

Change the Weather History Date:

Saturday, October 5, 2013

  Actual Average Record
Temperature  
Mean Temperature 83 °F -  
Max Temperature 86 °F 86 °F 93 °F (1962)
Min Temperature 80 °F 77 °F 71 °F (1957)
Cooling Degree Days 18    
Growing Degree Days 33 (Base 50)    
Moisture  
Dew Point 72 °F    
Average Humidity 72    
Maximum Humidity 79    
Minimum Humidity 63    
Precipitation  
Precipitation 0.00 in - - ()
Sea Level Pressure  
Sea Level Pressure 29.97 in    
Wind  
Wind Speed 8 mph (ENE)    
Max Wind Speed 12 mph    
Max Gust Speed -    
Visibility 10 miles    
Events      
Averages and records for this station are not official NWS values.
T = Trace of Precipitation, MM = Missing Value Source: NWS Daily Summary

Daily Weather History Graph

Daily Weather History Graph

Search for Another Location

Airport or City:

Trip Planner

Search our weather history database for the weather conditions in past years. The results will help you decide how hot, cold, wet, or windy it might be!

Date:

Astronomy

Oct. 05, 2013 Rise Set
Actual Time 7:20 AM EDT 7:09 PM EDT
Civil Twilight 6:57 AM EDT 7:32 PM EDT
Nautical Twilight 6:31 AM EDT 7:58 PM EDT
Astronomical Twilight 6:04 AM EDT 8:24 PM EDT
Moon 7:50 AM EDT (10/5) 7:37 PM EDT (10/5)
Length of Visible Light 12h 34m
Length of Day
11h 48m
New Moon, 0% of the Moon is Illuminated
Oct 5
New Moon
Oct 11
First Quarter
Oct 18
Full
Oct 26
Last Quarter
Nov 3
New

Hourly Weather History & Observations

Time (EDT) Temp. Heat Index Dew Point Humidity Pressure Visibility Wind Dir Wind Speed Gust Speed Precip Events Conditions
12:53 AM 82.0 °F 87.4 °F 73.0 °F 74% 30.01 in 10.0 mi ENE 10.4 mph - N/A   Clear
1:53 AM 82.0 °F 87.9 °F 73.9 °F 76% 30.01 in 10.0 mi NE 5.8 mph - N/A   Clear
2:53 AM 82.0 °F 87.4 °F 73.0 °F 74% 29.99 in 10.0 mi ENE 6.9 mph - N/A   Clear
3:53 AM 81.0 °F 85.2 °F 72.0 °F 74% 29.98 in 10.0 mi ENE 5.8 mph - N/A   Clear
4:53 AM 80.1 °F 84.2 °F 73.0 °F 79% 29.97 in 10.0 mi ENE 4.6 mph - N/A   Clear
5:53 AM 80.1 °F 84.2 °F 73.0 °F 79% 29.96 in 10.0 mi NE 5.8 mph - N/A   Clear
6:06 AM 80.6 °F 85.4 °F 73.4 °F 79% 29.97 in 10.0 mi NE 6.9 mph - N/A   Scattered Clouds
6:53 AM 80.1 °F 84.2 °F 73.0 °F 79% 29.96 in 10.0 mi ENE 6.9 mph - N/A   Scattered Clouds
7:53 AM 80.1 °F 84.2 °F 73.0 °F 79% 29.98 in 10.0 mi NE 5.8 mph - N/A   Mostly Cloudy
8:53 AM 82.9 °F 89.4 °F 73.9 °F 74% 30.01 in 10.0 mi ENE 5.8 mph - N/A   Mostly Cloudy
9:53 AM 84.0 °F 89.6 °F 72.0 °F 67% 30.01 in 10.0 mi ENE 6.9 mph - N/A   Mostly Cloudy
10:53 AM 84.0 °F 89.6 °F 72.0 °F 67% 30.01 in 10.0 mi ENE 6.9 mph - N/A   Mostly Cloudy
11:53 AM 86.0 °F 93.0 °F 73.0 °F 65% 30.01 in 10.0 mi East 6.9 mph - N/A   Mostly Cloudy
12:53 PM 84.9 °F 90.7 °F 72.0 °F 65% 30.00 in 10.0 mi East 5.8 mph - N/A   Mostly Cloudy
1:53 PM 84.9 °F 90.1 °F 71.1 °F 63% 29.97 in 10.0 mi East 6.9 mph - N/A   Mostly Cloudy
2:53 PM 84.0 °F 89.6 °F 72.0 °F 67% 29.95 in 10.0 mi East 8.1 mph - N/A   Mostly Cloudy
3:53 PM 84.0 °F 90.2 °F 73.0 °F 69% 29.93 in 10.0 mi East 9.2 mph - N/A   Mostly Cloudy
4:53 PM 82.9 °F 88.0 °F 72.0 °F 69% 29.93 in 10.0 mi East 8.1 mph - N/A   Mostly Cloudy
5:53 PM 82.9 °F 88.8 °F 73.0 °F 72% 29.92 in 10.0 mi ENE 9.2 mph - N/A   Mostly Cloudy
6:53 PM 82.0 °F 87.4 °F 73.0 °F 74% 29.92 in 10.0 mi ENE 10.4 mph - N/A   Mostly Cloudy
7:53 PM 82.0 °F 86.7 °F 72.0 °F 71% 29.93 in 10.0 mi East 9.2 mph - N/A   Mostly Cloudy
8:53 PM 82.0 °F 86.3 °F 71.1 °F 69% 29.95 in 10.0 mi East 11.5 mph - N/A   Mostly Cloudy
9:53 PM 82.0 °F 86.7 °F 72.0 °F 71% 29.96 in 10.0 mi East 9.2 mph - N/A   Mostly Cloudy
10:53 PM 82.0 °F 86.3 °F 71.1 °F 69% 29.97 in 10.0 mi East 9.2 mph - N/A   Scattered Clouds
11:53 PM 81.0 °F 84.1 °F 69.1 °F 67% 29.97 in 10.0 mi ESE 9.2 mph - N/A   Partly Cloudy